Regional Weather Roundup
Issued by NWS

Home | Current Version | Previous Version | Text Only | Print | Product List | Glossary Off
Versions: 1 2 3 4 5 6 7 8 9 10 11 12 13 14 15 16 17 18 19 20 21 22 23 24 25 26 27 28 29 30 31 32 33 34 35 36 37 38 39 40 41 42 43 44 45 46 47 48 49 50

696
ASUS43 KFSD 270802
RWRSD

WEATHER ROUNDUP FOR SOUTH DAKOTA
NATIONAL WEATHER SERVICE SIOUX FALLS SD
300 AM CDT SAT AUG 27 2016

NOTE: "FAIR" INDICATES FEW OR NO CLOUDS BELOW 12,000 FEET WITH NO
SIGNIFICANT WEATHER AND/OR OBSTRUCTIONS TO VISIBILITY.


SDZ001>005-009-010-012>017-270900-
NORTHWEST AND NORTH CENTRAL SOUTH DAKOTA

CITY           SKY/WX    TMP DP  RH WIND       PRES   REMARKS
FAITH            N/A     54  54 100 S8        29.96F
MOBRIDGE       CLOUDY    59  54  83 S7        29.95F
$$

SDZ012>016-024>037-041>051-057-063-072>074-270900-
SOUTHWEST AND SOUTH CENTRAL SOUTH DAKOTA

CITY           SKY/WX    TMP DP  RH WIND       PRES   REMARKS
RAPID CTY ARPT MOCLDY    52  50  93 SW9       30.01F
PIERRE         PTCLDY    58  54  86 S8        29.98S
CUSTER         CLOUDY    47  44  90 SW3       30.09F
ELLSWORTH AFB  MOCLDY    53  53 100 SW8       29.99F
PHILIP         LGT RAIN  60  56  86 W17G26    29.99R
PINE RIDGE     PTCLDY    56  53  90 VRB5      30.01S
WINNER         FAIR      59  56  89 S8        30.00F
$$

SDZ004>011-016>023-039-040-270900-
NORTHEAST SOUTH DAKOTA

CITY           SKY/WX    TMP DP  RH WIND       PRES   REMARKS
ABERDEEN       CLOUDY    60  56  86 S10       29.99F
WATERTOWN      CLOUDY    62  58  86 S8        30.03F
BROOKINGS      CLOUDY    61  59  93 SE7       30.03F
$$

SDZ017-020-022-023-036>040-048>070-270900-
SOUTHEAST SOUTH DAKOTA

CITY           SKY/WX    TMP DP  RH WIND       PRES   REMARKS
SIOUX FALLS    HVY RAIN  62  60  93 E7        30.03F FOG
HURON          CLOUDY    59  57  93 SE6       30.00F
CHAMBERLAIN    CLEAR     58  58  99 SE6       30.00S
MITCHELL       PTCLDY    62  60  93 SE6       30.01F
YANKTON        CLOUDY    63  59  88 E3        30.01S
$$

ABBREVIATIONS USED IN REMARKS
   TC - TEMPERATURE IN CELSIUS
  WCI - WIND CHILL INDEX
   HX - HEAT INDEX
  VSB - VISIBILITY





USA.gov is the U.S. government's official web portal to all federal, state and local government web resources and services.